NI0Z Weather Reports


Display with metric or nautical units.
time (UTC)temp
F
wind
direction
speed
MPH
gust
MPH
rain 1hr
in
rain 24hr
in
rain mn
in
humidity
%
barometer
mb
20260506191117 57 329 1.0 5.0 0.00 0.02 0.02 40
20260506190615 57 313 1.0 6.0 0.00 0.02 0.02 40
20260506190111 56 221 2.0 3.0 0.00 0.02 0.02 44
20260506185609 57 297 3.0 3.0 0.00 0.02 0.02 38
20260506185105 56 296 2.0 3.0 0.00 0.02 0.02 37
20260506184602 56 293 2.0 3.0 0.00 0.02 0.02 46
20260506184059 57 236 3.0 5.0 0.00 0.02 0.02 42
20260506183556 56 293 1.0 3.0 0.00 0.02 0.02 42
20260506183052 56 290 2.0 3.0 0.00 0.02 0.02 39
20260506182550 55 283 1.0 5.0 0.00 0.02 0.02 47
20260506182047 54 272 4.0 6.0 0.00 0.02 0.02 41
20260506181545 54 264 2.0 6.0 0.00 0.02 0.02 43
20260506181041 54 295 5.0 8.0 0.00 0.02 0.02 42
20260506180537 54 290 2.0 5.0 0.00 0.02 0.02 41
20260506180035 54 297 0.0 0.0 0.00 0.02 0.02 42
20260506175531 54 246 3.0 6.0 0.00 0.02 0.02 45
20260506175027 54 319 1.0 5.0 0.00 0.02 0.02 43
20260506174526 54 295 3.0 5.0 0.00 0.02 0.02 43
20260506174022 53 290 0.0 2.0 0.00 0.02 0.02 47
20260506173520 53 239 3.0 3.0 0.00 0.02 0.02 44
20260506173017 54 296 1.0 7.0 0.00 0.02 0.02 43
20260506172514 54 306 0.0 3.0 0.00 0.02 0.02 46
20260506172010 54 313 1.0 6.0 0.00 0.02 0.02 41
20260506171507 55 294 2.0 5.0 0.00 0.02 0.02 41
20260506171004 55 286 1.0 6.0 0.00 0.02 0.02 43
20260506170502 55 283 2.0 2.0 0.00 0.02 0.02 45
20260506170000 55 325 2.0 6.0 0.00 0.02 0.02 42
20260506165458 55 245 2.0 3.0 0.00 0.02 0.02 44
20260506164954 54 215 2.0 5.0 0.00 0.02 0.02 44
20260506164451 53 317 1.0 5.0 0.00 0.02 0.02 44
20260506163949 53 323 0.0 5.0 0.00 0.02 0.02 46
20260506163443 53 273 2.0 7.0 0.00 0.02 0.02 46
20260506162938 53 216 1.0 6.0 0.00 0.02 0.02 45
20260506162436 53 263 3.0 5.0 0.00 0.02 0.02 44
20260506161934 53 313 1.0 5.0 0.00 0.02 0.02 45
20260506161432 53 205 4.0 10.0 0.00 0.02 0.02 43
20260506160929 53 282 4.0 6.0 0.00 0.02 0.02 46
20260506160426 52 282 0.0 1.0 0.00 0.02 0.02 47
20260506155923 52 318 2.0 3.0 0.00 0.02 0.02 46
20260506155420 52 294 3.0 6.0 0.00 0.02 0.02 45
20260506153542 53 315 0.0 1.0 0.00 0.02 0.02 50
20260506153040 52 294 1.0 3.0 0.00 0.02 0.02 49
20260506152537 52 276 2.0 6.0 0.00 0.02 0.02 52
20260506152035 52 301 1.0 6.0 0.00 0.02 0.02 50
20260506151532 52 236 4.0 6.0 0.00 0.02 0.02 52
20260506151029 52 173 2.0 7.0 0.00 0.02 0.02 53
20260506150526 52 300 1.0 5.0 0.00 0.02 0.02 53
20260506150023 52 314 2.0 3.0 0.00 0.02 0.02 54
20260506145519 51 317 1.0 2.0 0.00 0.02 0.02 54
20260506145017 51 245 3.0 3.0 0.00 0.02 0.02 58
20260506144513 51 318 0.0 2.0 0.00 0.02 0.02 58
20260506144011 51 268 0.0 3.0 0.00 0.02 0.02 60
20260506143509 51 321 1.0 3.0 0.00 0.02 0.02 56
20260506143007 51 254 1.0 2.0 0.00 0.02 0.02 64
20260506142504 50 299 2.0 5.0 0.00 0.02 0.02 62
20260506142002 50 302 0.0 0.0 0.00 0.02 0.02 63
20260506141500 50 315 1.0 2.0 0.00 0.02 0.02 62
20260506140958 50 314 0.0 2.0 0.00 0.02 0.02 64
20260506140455 49 299 2.0 5.0 0.00 0.02 0.02 60
20260506135951 50 311 0.0 3.0 0.00 0.02 0.02 64
20260506135449 49 296 0.0 1.0 0.00 0.02 0.02 65
20260506134944 49 295 2.0 2.0 0.00 0.02 0.02 66
20260506134441 49 298 1.0 2.0 0.00 0.02 0.02 64
20260506133938 49 303 1.0 2.0 0.00 0.02 0.02 68
20260506133435 49 284 0.0 2.0 0.00 0.02 0.02 67
20260506132931 48 224 2.0 6.0 0.00 0.02 0.02 68
20260506132429 48 292 1.0 5.0 0.00 0.02 0.02 70
20260506131926 48 317 0.0 1.0 0.00 0.02 0.02 75
20260506131422 47 278 1.0 2.0 0.00 0.02 0.02 77
20260506130919 46 316 0.0 2.0 0.00 0.02 0.02 79
20260506130416 46 284 0.0 2.0 0.00 0.02 0.02 81
20260506125914 45 325 0.0 2.0 0.00 0.02 0.02 82
20260506125412 45 314 0.0 1.0 0.00 0.02 0.02 82
20260506124910 46 317 0.0 0.0 0.00 0.02 0.02 83
20260506124407 45 319 0.0 0.0 0.00 0.02 0.02 83
20260506123905 45 326 0.0 0.0 0.00 0.02 0.02 84
20260506123403 45 326 0.0 0.0 0.00 0.02 0.02 85
20260506122900 45 327 0.0 0.0 0.00 0.02 0.02 85
20260506122356 45 323 0.0 0.0 0.00 0.02 0.02 85
20260506121855 45 308 0.0 0.0 0.00 0.02 0.02 86
20260506121352 45 323 0.0 0.0 0.00 0.02 0.02 85
20260506120848 44 321 0.0 0.0 0.00 0.02 0.02 85
20260506120346 45 319 0.0 0.0 0.00 0.02 0.02 85
20260506115843 44 327 0.0 0.0 0.00 0.02 0.02 83
20260506115342 44 327 0.0 0.0 0.00 0.02 0.02 83
20260506114839 44 329 0.0 0.0 0.00 0.02 0.02 82
20260506114337 44 329 0.0 0.0 0.00 0.02 0.02 82
20260506113835 44 329 0.0 0.0 0.00 0.02 0.02 84
20260506113332 44 338 0.0 0.0 0.00 0.02 0.02 84
20260506112829 44 331 0.0 0.0 0.00 0.02 0.02 85
20260506112326 44 328 0.0 0.0 0.00 0.02 0.02 85
20260506111823 44 330 0.0 0.0 0.00 0.02 0.02 85
20260506111321 44 325 0.0 0.0 0.00 0.02 0.02 84
20260506110819 44 340 0.0 0.0 0.00 0.02 0.02 84
20260506110316 44 331 0.0 0.0 0.00 0.02 0.02 83
20260506105812 44 321 0.0 0.0 0.00 0.02 0.02 84
20260506105309 44 321 0.0 2.0 0.00 0.02 0.02 85
20260506104807 44 310 2.0 2.0 0.00 0.02 0.02 86
20260506104304 44 160 2.0 3.0 0.00 0.02 0.02 87
20260506103801 44 258 0.0 2.0 0.00 0.02 0.02 88
20260506103259 44 331 0.0 0.0 0.00 0.02 0.02 88
20260506102756 44 321 0.0 1.0 0.00 0.02 0.02 88
20260506102254 44 347 0.0 0.0 0.00 0.02 0.02 89
20260506101751 44 294 0.0 1.0 0.00 0.02 0.02 89
20260506101247 44 242 0.0 0.0 0.00 0.02 0.02 89
20260506100745 44 267 0.0 2.0 0.00 0.02 0.02 90
20260506100243 44 305 0.0 1.0 0.00 0.02 0.02 90
20260506095742 43 265 0.0 2.0 0.00 0.02 0.02 90
20260506095238 44 298 0.0 0.0 0.00 0.02 0.02 90
20260506094735 44 315 0.0 0.0 0.00 0.02 0.02 90
20260506094233 44 306 0.0 1.0 0.00 0.02 0.02 90
20260506093731 44 315 0.0 0.0 0.00 0.02 0.02 90
20260506093228 44 316 0.0 0.0 0.00 0.02 0.02 90
20260506092726 44 317 0.0 0.0 0.00 0.02 0.02 89
20260506092223 44 322 0.0 0.0 0.00 0.02 0.02 89
20260506091721 44 323 0.0 0.0 0.00 0.02 0.02 89
20260506091218 44 325 0.0 0.0 0.00 0.02 0.02 88
20260506090716 44 325 0.0 0.0 0.00 0.02 0.02 88
20260506090212 44 325 0.0 0.0 0.00 0.02 0.02 88
20260506085710 44 325 0.0 0.0 0.00 0.02 0.02 88
20260506085205 44 324 0.0 0.0 0.00 0.02 0.02 88
20260506084702 44 325 0.0 0.0 0.00 0.02 0.02 87
20260506084159 44 325 0.0 0.0 0.00 0.02 0.02 87
20260506083655 44 324 0.0 0.0 0.00 0.02 0.02 86
20260506083154 44 325 0.0 0.0 0.00 0.02 0.02 86
20260506082650 44 325 0.0 0.0 0.00 0.02 0.02 86
20260506082151 44 323 0.0 0.0 0.00 0.02 0.02 86
20260506081649 44 330 0.0 0.0 0.00 0.02 0.02 85
20260506081147 44 330 0.0 0.0 0.00 0.02 0.02 85
20260506080644 44 331 0.0 0.0 0.00 0.02 0.02 85
20260506080141 44 331 0.0 0.0 0.00 0.02 0.02 85
20260506073125 45 332 0.0 0.0 0.00 0.02 0.02 82
20260506072621 45 332 0.0 1.0 0.00 0.02 0.02 81
20260506072119 45 332 1.0 1.0 0.00 0.02 0.02 81
20260506071617 45 338 1.0 2.0 0.00 0.02 0.02 81
20260506071114 44 346 1.0 1.0 0.00 0.02 0.02 82
20260506070611 45 330 0.0 0.0 0.00 0.02 0.02 83
20260506070108 44 322 0.0 0.0 0.00 0.02 0.02 83
20260506062045 45 309 1.0 2.0 0.00 0.01 0.01 81
20260506061541 45 322 0.0 1.0 0.00 0.01 0.01 80
20260506061039 45 313 3.0 3.0 0.00 0.01 0.01 79
20260506060537 45 293 2.0 5.0 0.00 0.01 0.01 79
20260506051006 47 280 2.0 5.0 0.05 0.01 0.01 74
20260506050504 47 226 3.0 5.0 0.05 0.01 0.01 73
20260506044954 48 298 1.0 3.0 0.00 0.76 0.76 70
20260506044452 48 291 0.0 2.0 0.00 0.76 0.76 70
20260506043948 48 232 2.0 5.0 0.00 0.76 0.76 70
20260506043446 48 309 1.0 2.0 0.00 0.76 0.76 69
20260506042943 49 294 3.0 7.0 0.00 0.76 0.76 67
20260506042443 48 316 3.0 6.0 0.00 0.76 0.76 67
20260506041940 48 230 2.0 5.0 0.00 0.76 0.76 71
20260506041438 48 274 5.0 9.0 0.00 0.76 0.76 76
20260506040935 48 237 4.0 6.0 0.00 0.76 0.76 78
20260506040433 48 315 1.0 1.0 0.00 0.76 0.76 82
20260506035928 48 303 0.0 0.0 0.00 0.76 0.76 82
20260506035426 49 313 0.0 0.0 0.00 0.76 0.76 83
20260506034922 49 320 0.0 0.0 0.00 0.76 0.76 82
20260506034420 49 321 0.0 0.0 0.00 0.76 0.76 79
20260506033917 49 327 0.0 0.0 0.00 0.76 0.76 81
20260506033414 49 320 0.0 0.0 0.00 0.76 0.76 82
20260506032911 49 328 0.0 0.0 0.00 0.76 0.76 81
20260506032408 49 328 0.0 0.0 0.00 0.76 0.76 81
20260506031904 49 314 0.0 0.0 0.00 0.76 0.76 83
20260506031402 48 303 0.0 0.0 0.00 0.76 0.76 85
20260506030859 48 326 0.0 2.0 0.00 0.76 0.76 87
20260506030357 48 311 0.0 0.0 0.00 0.76 0.76 90
20260506025854 48 317 0.0 0.0 0.00 0.76 0.76 90
20260506025350 48 330 0.0 0.0 0.00 0.76 0.76 90
20260506024848 48 329 0.0 0.0 0.00 0.76 0.76 90
20260506024344 48 331 0.0 0.0 0.00 0.76 0.76 89
20260506023840 48 327 0.0 0.0 0.00 0.76 0.76 89
20260506023337 49 326 0.0 0.0 0.00 0.76 0.76 89
20260506022834 49 326 0.0 0.0 0.00 0.76 0.76 89
20260506022332 49 326 0.0 0.0 0.00 0.76 0.76 89
20260506021830 48 329 0.0 0.0 0.00 0.76 0.76 88
20260506021327 48 329 0.0 0.0 0.00 0.76 0.76 88
20260506020823 48 329 0.0 0.0 0.00 0.76 0.76 88
20260506020321 49 329 0.0 0.0 0.00 0.76 0.76 88
20260506015819 48 329 0.0 0.0 0.00 0.76 0.76 88
20260506015316 48 330 0.0 0.0 0.00 0.76 0.76 88
20260506014812 49 329 0.0 0.0 0.00 0.76 0.76 87
20260506014309 49 329 0.0 0.0 0.00 0.76 0.76 87
20260506013806 49 329 0.0 0.0 0.00 0.76 0.76 86
20260506013303 49 329 0.0 0.0 0.00 0.76 0.76 86
20260506012800 49 329 0.0 0.0 0.00 0.76 0.76 85
20260506012257 49 329 0.0 0.0 0.00 0.76 0.76 85
20260506011754 49 329 0.0 0.0 0.00 0.76 0.76 85
20260506011250 49 329 0.0 0.0 0.00 0.76 0.76 85
20260506010748 49 329 0.0 0.0 0.00 0.76 0.76 84
20260506010245 50 329 0.0 0.0 0.00 0.76 0.76 84
20260506005743 50 329 0.0 0.0 0.00 0.76 0.76 83
20260506005239 50 329 0.0 0.0 0.00 0.76 0.76 83
20260506004735 50 329 0.0 0.0 0.00 0.76 0.76 83
20260506004233 50 329 0.0 0.0 0.00 0.76 0.76 83
20260506003729 50 329 0.0 0.0 0.00 0.76 0.76 83
20260506003226 50 329 0.0 0.0 0.00 0.76 0.76 83
20260506002721 50 322 0.0 0.0 0.00 0.76 0.76 83
20260506002218 50 328 0.0 0.0 0.00 0.76 0.76 83
20260506001714 50 302 0.0 1.0 0.00 0.76 0.76 83
20260506001211 50 322 0.0 0.0 0.00 0.76 0.76 83
20260506000708 50 329 0.0 0.0 0.00 0.76 0.76 82
20260506000206 50 327 0.0 0.0 0.00 0.76 0.76 82
20260505235703 51 321 0.0 0.0 0.00 0.76 0.76 81
20260505235201 51 321 0.0 0.0 0.00 0.76 0.76 80
20260505234657 51 314 0.0 1.0 0.00 0.76 0.76 80
20260505234154 51 321 0.0 1.0 0.00 0.76 0.76 80
20260505233651 50 322 0.0 0.0 0.00 0.76 0.76 80
20260505233149 50 316 0.0 0.0 0.00 0.76 0.76 81
20260505232646 50 337 0.0 1.0 0.00 0.76 0.76 80
20260505232144 50 315 0.0 0.0 0.00 0.76 0.76 81
20260505231640 50 322 0.0 2.0 0.00 0.76 0.76 80
20260505231139 51 334 0.0 0.0 0.00 0.76 0.76 80
20260505230637 50 326 0.0 1.0 0.00 0.76 0.76 79
20260505230133 50 324 0.0 0.0 0.00 0.76 0.76 79
20260505225629 50 320 0.0 0.0 0.00 0.76 0.76 78
20260505225125 50 316 0.0 0.0 0.00 0.76 0.76 79
20260505224622 50 328 0.0 0.0 0.00 0.76 0.76 79
20260505224120 50 328 0.0 0.0 0.00 0.76 0.76 80
20260505223617 51 328 0.0 0.0 0.00 0.76 0.76 81
20260505223113 50 322 0.0 0.0 0.00 0.76 0.76 79
20260505222609 50 331 0.0 0.0 0.00 0.76 0.76 79
20260505222106 50 320 0.0 0.0 0.00 0.76 0.76 80
20260505221603 50 333 0.0 0.0 0.00 0.76 0.76 80
20260505221059 50 328 0.0 0.0 0.00 0.76 0.76 80
20260505220556 50 331 0.0 0.0 0.00 0.76 0.76 79
20260505220054 50 305 0.0 2.0 0.00 0.76 0.76 79
20260505215552 50 316 0.0 2.0 0.00 0.76 0.76 79
20260505215050 50 316 0.0 2.0 0.00 0.76 0.76 79
20260505214548 50 291 0.0 0.0 0.00 0.76 0.76 80
20260505214044 50 321 0.0 0.0 0.00 0.76 0.76 79
20260505213542 49 311 0.0 0.0 0.00 0.76 0.76 78
20260505213038 50 321 0.0 0.0 0.00 0.76 0.76 79
20260505212535 50 326 0.0 1.0 0.00 0.76 0.76 79
20260505212032 50 309 0.0 2.0 0.00 0.76 0.76 79
20260505211529 49 280 2.0 2.0 0.00 0.76 0.76 77
20260505211025 49 324 0.0 1.0 0.00 0.76 0.76 78
20260505210522 48 319 1.0 2.0 0.00 0.76 0.76 79
20260505210020 49 311 0.0 2.0 0.00 0.76 0.76 82
20260505205518 49 326 0.0 2.0 0.00 0.76 0.76 83
20260505205014 48 308 0.0 0.0 0.00 0.76 0.76 83
20260505204512 48 277 0.0 2.0 0.00 0.76 0.76 83
20260505204009 48 293 0.0 2.0 0.00 0.76 0.76 82
20260505203506 48 281 0.0 0.0 0.00 0.76 0.76 83
20260505203002 48 319 0.0 2.0 0.00 0.76 0.76 81
20260505202459 48 304 2.0 3.0 0.00 0.76 0.76 82
20260505201954 48 241 3.0 3.0 0.00 0.76 0.76 83
20260505201452 48 303 0.0 0.0 0.00 0.76 0.76 82
20260505200949 48 302 0.0 3.0 0.00 0.76 0.76 81
20260505200447 48 299 2.0 2.0 0.00 0.76 0.76 80
20260505195943 47 322 0.0 1.0 0.00 0.76 0.76 80
20260505195440 47 308 1.0 2.0 0.00 0.76 0.76 82
20260505194937 47 319 1.0 2.0 0.00 0.76 0.76 82
20260505194434 47 326 0.0 0.0 0.00 0.76 0.76 83
20260505193934 47 312 0.0 0.0 0.00 0.76 0.76 82
20260505193432 47 329 0.0 1.0 0.00 0.76 0.76 82
20260505192930 47 327 0.0 2.0 0.00 0.76 0.76 82
20260505192428 47 330 0.0 3.0 0.00 0.76 0.76 82
20260505191925 47 320 0.0 2.0 0.00 0.76 0.76 82